OPS 4682 DEB, 38413

Orbit data source: Space-Track

OPS 4682 DEB, 38413 is space debris in LEO originally from a launch on Sat, 03 Apr 1965 UTC launched from the Air Force Western Test Range (AFWTR). Debris objects in space refer to the collection of defunct objects orbiting the Earth. Examples of debris include non-operational satellites, rocket bodies, and fragments generated from explosions, collisions, or faulty payload assembly.

Loading next visibility...
Identifier
38413, 1965-027DS
Orbit
LEO
Country
Flag of USUS
Related business
Manufacturer
Unknown
Mission
Spacecraft
Bus & Motor
Unknown
Mass
Unknown
Launch date (UTC)
1965-04-03 (61 years ago)
Launch vehicle
Unknown
Launch site
Air Force Western Test Range (AFWTR)
Object type
Payload
Rocket body
Debris
Shape & HBR
Unknown shape, 0.1 m
Radar Cross Section
Medium (>0.1 m² and <1 m²)

Expand to show TLE details & history
Last TLE update: 18 hours ago

TLE from 18 hours ago
0 OPS 4682 DEB
1 38413U 65027DS  26236.36072278  .00000658  00000-0  21558-2 0  9995
2 38413  90.2460  11.7758 0031132 109.7845 250.6638 13.00049588134135
Epoch: 2026-08-24T08:39Z
TLE epoch observation values (Epoch: 2026-08-24T08:39:26.448Z)
Latitude
-0.00005°
Longitude
-90.72794°
Altitude
1,272.719 km
Speed
7.216 km/s
True Right ascension
00h 47m 06s
True Declination
0° 00' 00"
Sunlit
Object was in full shadow at epoch
Visualization orbit readout
Latitude
Unknown
Longitude
Unknown
Altitude
Unknown
Speed
Unknown
Apparent Right ascension
Unknown
Apparent Declination
Unknown
Sunlit
N/A
Visualization observer readout
Local Sidereal Time
17:56:05
Azimuth
Unknown
Elevation
Unknown
Doppler factor
Unknown
Orbital elements
Apogee altitude
1,282.795 km
Perigee altitude
1,235.243 km
Semi-major axis
7,637.156 km
Eccentricity
0.00311
Inclination
90.246°
RAAN
11.7758°
Arg. of periapsis
109.7845°
True anomaly
250.32761°
Mean anomaly
250.6638°
Eccentric anomaly
250.49566°
Mean motion
3.25196 °/min
Orbital period
110.7 mins
BSTAR
0.0021558
Loading maneuver chart data...
Computing Atmospheric mass density...
Loading historical data...
Loading historical data...
Loading historical data...
Loading historical data...
Loading historical data...
Loading historical data...
Loading historical data...

Documentation

Showing up to 5 results
|